User: anonymous   Login
Location: Les Coudrans
(46.1056°N, 1.1158°W)
Time: 06:23:25
(UTC+00:00)
Language:

Lacrosse 4 Rocket - Orbit

View from above orbital plane
View from above orbital plane
View from above satellite
View from above satellite

Ground track
Ground track

The orbit data is extracted from the following two-line orbital elements,

1 26474U 00047B   21134.52757974  .00000202  00000-0  28262-4 0  9999
2 26474  67.9941 244.2667 0057489 198.2548 161.6533 14.96143223128845
Epoch (UTC): 14 May 2021 12:39:42
Eccentricity: 0.0057489
inclination: 67.9941°
perigee height: 539 km
apogee height: 619 km
right ascension of ascending node: 244.2667°
argument of perigee: 198.2548°
revolutions per day: 14.96143223
mean anomaly at epoch: 161.6533°
orbit number at epoch: 12884

The dashed part of the orbit path shows where the satellite is in the earth's shadow,  

DLR